Latest Weather Observations for Dennes Point

IDT60801

Issued at 8:05 am EDT Monday 24 November 2014 (issued every 30 minutes, with the page automatically refreshed every 10 minutes)

About weather observations | Map of weather stations | Latest weather observations for TAS | Other Formats
Station Details ID: 094255 Name: DENNES POINT Lat: -43.06 Lon: 147.36 Height: 5.67 m
Data from the previous 72 hours. | See also: Recent months at Dennes Point
Date/Time
EDT
Temp
°C
App
Temp
°C
Dew
Point
Rel
Hum
%
Delta-T
°C
Wind Press
QNH
hPa
Press
MSL
hPa
Rain
since 9 am
mm
Dir
 
Spd
km/h
Gust
km/h
Spd
kts
Gust
kts
24/08:00am 13.3 11.6 9.7 79 1.8 SW 9 11 5 6 1008.4 1008.3 0.0
24/07:30am 13.8 11.5 9.0 73 2.4 NNW 11 13 6 7 1008.4 1008.3 0.0
24/07:00am 13.4 11.7 8.3 71 2.5 N 7 11 4 6 1008.4 1008.3 0.0
24/06:30am 12.5 11.2 9.3 81 1.6 SW 6 11 3 6 1008.6 1008.5 0.0
24/06:00am 11.5 10.9 8.9 84 1.3 N 2 4 1 2 1008.5 1008.4 0.0
24/05:30am 10.7 9.4 9.3 91 0.7 SSW 6 7 3 4 1008.8 1008.8 0.0
24/05:00am 10.4 9.0 9.0 91 0.7 SW 6 9 3 5 1009.0 1009.0 0.0
24/04:30am 10.7 8.6 9.8 94 0.5 SSW 11 15 6 8 1009.0 1009.0 0.0
24/04:00am 10.7 8.9 9.5 92 0.6 SSW 9 13 5 7 1009.1 1009.1 0.0
24/03:30am 11.6 10.1 10.7 94 0.5 SSW 9 11 5 6 1009.5 1009.5 0.0
24/03:00am 12.8 12.1 11.4 91 0.7 WNW 6 9 3 5 1009.6 1009.6 0.0
24/02:30am 13.5 13.8 12.2 92 0.7 W 2 4 1 2 1009.8 1009.8 0.0
24/02:00am 13.7 14.4 12.1 90 0.9 CALM 0 0 0 0 1010.2 1010.2 0.0
24/01:30am 13.9 13.2 12.1 89 1.0 N 7 9 4 5 1010.6 1010.6 0.0
24/01:00am 14.5 12.9 12.9 90 0.9 NNE 13 19 7 10 1010.8 1010.8 0.0
24/12:30am 14.5 12.5 12.7 89 1.0 NE 15 19 8 10 1010.9 1010.9 0.0
24/12:00am 14.5 13.6 12.5 88 1.1 ENE 9 11 5 6 1011.2 1011.2 0.0
 
Date/Time
EDT
Temp
°C
App
Temp
°C
Dew
Point
Rel
Hum
%
Delta-T
°C
Wind Press
QNH
hPa
Press
MSL
hPa
Rain
since 9 am
mm
Dir
 
Spd
km/h
Gust
km/h
Spd
kts
Gust
kts
23/11:30pm 14.7 13.8 12.6 87 1.1 NE 9 9 5 5 1011.4 1011.4 0.0
23/11:00pm 14.9 14.3 12.4 85 1.4 NE 7 9 4 5 1012.0 1012.0 0.0
23/10:30pm 15.1 13.8 12.6 85 1.4 NNE 11 15 6 8 1012.3 1012.3 0.0
23/10:00pm 15.2 13.9 12.5 84 1.5 NE 11 15 6 8 1012.3 1012.3 0.0
23/09:30pm 15.3 13.1 12.2 82 1.7 NE 15 19 8 10 1012.1 1012.1 0.0
23/09:00pm 15.2 12.3 12.2 82 1.6 ENE 19 24 10 13 1011.6 1011.6 0.0
23/08:30pm 15.1 13.5 11.7 80 1.8 E 11 19 6 10 1011.6 1011.6 0.0
23/08:00pm 15.3 14.0 11.3 77 2.1 E 9 15 5 8 1011.6 1011.6 0.0
23/07:30pm 15.6 11.2 11.8 78 2.1 ENE 26 32 14 17 1011.0 1011.0 0.0
23/07:00pm 15.8 11.3 11.4 75 2.4 ENE 26 33 14 18 1010.6 1010.6 0.0
23/06:30pm 15.7 14.0 11.1 74 2.5 ESE 11 19 6 10 1010.1 1010.1 0.0
23/06:00pm 15.7 12.5 11.1 74 2.5 ESE 19 22 10 12 1009.7 1009.7 0.0
23/05:30pm 16.1 12.8 10.8 71 2.8 ESE 19 24 10 13 1009.6 1009.6 0.0
23/05:00pm 16.4 13.1 10.9 70 2.9 ESE 19 22 10 12 1009.3 1009.3 0.0
23/04:30pm 16.9 13.1 11.2 69 3.1 ESE 22 26 12 14 1009.3 1009.3 0.0
23/04:00pm 17.0 12.9 11.5 70 3.0 ESE 24 32 13 17 1009.0 1009.0 0.0
23/03:30pm 17.5 12.7 11.5 68 3.3 ESE 28 33 15 18 1008.6 1008.5 0.0
23/03:00pm 17.8 14.0 11.1 65 3.6 ESE 22 30 12 16 1008.4 1008.3 0.0
23/02:30pm 18.2 13.6 11.0 63 3.9 ESE 26 30 14 16 1008.5 1008.4 0.0
23/02:00pm 18.4 14.6 11.0 62 4.0 ESE 22 28 12 15 1008.6 1008.5 0.0
23/01:30pm 20.2 17.2 10.6 54 5.2 ESE 17 20 9 11 1008.4 1008.3 0.0
23/01:00pm 20.2 16.9 9.5 50 5.7 E 17 22 9 12 1008.4 1008.3 0.0
23/12:30pm 21.2 18.7 6.7 39 7.4 WNW 9 15 5 8 1008.5 1008.4 0.0
23/12:00pm 20.9 17.1 5.7 37 7.6 WSW 15 20 8 11 1008.2 1008.1 0.0
23/11:30am 21.2 17.4 5.6 36 7.8 W 15 20 8 11 1008.4 1008.3 0.0
23/11:00am 20.4 17.1 6.4 40 7.0 W 13 19 7 10 1008.4 1008.3 0.0
23/10:30am 19.5 15.4 6.3 42 6.6 W 17 20 9 11 1008.4 1008.3 0.0
23/10:00am 19.0 13.8 7.4 47 5.9 W 24 32 13 17 1008.2 1008.1 0.0
23/09:30am 18.6 14.4 5.8 43 6.3 W 17 24 9 13 1008.1 1008.0 0.0
23/09:00am 18.4 13.8 6.6 46 5.9 W 20 32 11 17 1007.9 1007.8 0.2
23/08:30am 17.9 14.0 7.0 49 5.4 W 17 26 9 14 1007.6 1007.5 0.2
23/08:00am 16.9 12.0 6.7 51 5.0 W 22 30 12 16 1007.2 1007.1 0.2
23/07:30am 16.6 12.7 8.6 59 4.1 W 19 24 10 13 1006.8 1006.7 0.2
23/07:00am 15.9 14.3 10.2 69 3.0 NW 9 19 5 10 1006.3 1006.2 0.2
23/06:30am 14.7 12.5 10.7 77 2.1 WSW 13 24 7 13 1005.9 1005.8 0.2
23/06:00am 13.9 11.3 10.7 81 1.7 W 15 19 8 10 1005.4 1005.3 0.2
23/05:30am 14.0 13.1 11.5 85 1.3 WSW 7 19 4 10 1004.8 1004.7 0.2
23/05:00am 14.0 13.4 12.2 89 1.0 SW 7 11 4 6 1004.6 1004.5 0.2
23/04:30am 14.7 13.9 11.7 82 1.6 SSW 7 13 4 7 1003.8 1003.7 0.2
23/04:00am 13.1 12.2 11.2 88 1.0 WSW 7 13 4 7 1003.8 1003.7 0.2
23/03:30am 13.3 12.1 11.5 89 1.0 W 9 13 5 7 1003.6 1003.5 0.2
23/03:00am 12.8 11.3 12.0 95 0.4 SSW 11 15 6 8 1003.5 1003.4 0.2
23/02:30am 13.0 11.6 12.1 94 0.5 SW 11 15 6 8 1003.7 1003.6 0.2
23/02:00am 13.4 12.1 12.5 94 0.5 WSW 11 17 6 9 1003.6 1003.5 0.2
23/01:30am 13.6 12.7 12.5 93 0.6 WSW 9 13 5 7 1003.5 1003.4 0.2
23/01:00am 13.3 11.9 12.2 93 0.6 SW 11 15 6 8 1003.4 1003.3 0.2
23/12:30am 13.0 12.1 11.4 90 0.8 SW 7 9 4 5 1003.3 1003.2 0.2
23/12:00am 13.7 12.9 11.8 88 1.0 SSW 7 9 4 5 1003.3 1003.2 0.2
 
Date/Time
EDT
Temp
°C
App
Temp
°C
Dew
Point
Rel
Hum
%
Delta-T
°C
Wind Press
QNH
hPa
Press
MSL
hPa
Rain
since 9 am
mm
Dir
 
Spd
km/h
Gust
km/h
Spd
kts
Gust
kts
22/11:30pm 13.7 12.6 11.9 89 1.0 SSW 9 11 5 6 1003.6 1003.5 0.2
22/11:00pm 14.0 13.0 12.2 89 1.0 SSW 9 13 5 7 1003.6 1003.5 0.2
22/10:30pm 14.2 13.5 12.1 87 1.1 SSW 7 9 4 5 1004.1 1004.0 0.2
22/10:00pm 14.8 15.5 12.3 85 1.4 CALM 0 0 0 0 1003.9 1003.8 0.2
22/09:30pm 15.3 15.1 11.9 80 1.8 SE 4 7 2 4 1003.9 1003.8 0.2
22/09:00pm 15.0 13.9 12.1 83 1.6 ESE 9 13 5 7 1003.7 1003.6 0.2
22/08:30pm 15.7 15.4 12.8 83 1.6 E 6 9 3 5 1003.8 1003.7 0.2
22/08:00pm 15.7 15.5 13.0 84 1.5 E 6 9 3 5 1003.7 1003.6 0.2
22/07:30pm 16.1 15.6 12.7 80 1.9 SE 7 11 4 6 1003.8 1003.7 0.2
22/07:00pm 15.7 16.0 13.4 86 1.3 NE 4 13 2 7 1003.6 1003.5 0.2
22/06:30pm 16.8 16.6 13.1 79 2.1 S 6 11 3 6 1003.3 1003.2 0.2
22/06:00pm 17.7 18.0 13.4 76 2.4 W 4 7 2 4 1002.8 1002.7 0.2
22/05:30pm 18.4 18.0 13.1 71 3.0 S 7 9 4 5 1003.3 1003.2 0.2
22/05:00pm 17.4 16.6 12.9 75 2.5 S 9 13 5 7 1003.6 1003.5 0.2
22/04:30pm 17.8 16.3 11.8 68 3.3 S 11 15 6 8 1003.8 1003.7 0.0
22/04:00pm 18.5 16.8 11.1 62 4.0 E 11 24 6 13 1003.3 1003.2 0.0
22/03:30pm 20.2 17.7 9.7 51 5.6 SSE 13 17 7 9 1003.0 1002.9 0.0
22/03:00pm 19.6 16.8 10.0 54 5.2 ESE 15 20 8 11 1003.6 1003.5 0.0
22/02:30pm 19.8 17.8 10.2 54 5.2 E 11 15 6 8 1003.9 1003.8 0.0
22/02:00pm 20.9 19.5 9.5 48 6.1 SSW 7 11 4 6 1004.4 1004.3 0.0
22/01:30pm 21.2 20.1 9.8 48 6.1 WSW 6 9 3 5 1004.7 1004.6 0.0
22/01:00pm 20.1 17.0 10.2 53 5.4 W 17 28 9 15 1005.0 1004.9 0.0
22/12:30pm 20.3 17.7 9.2 49 5.9 WNW 13 26 7 14 1005.1 1005.0 0.0
22/12:00pm 18.7 15.1 9.8 56 4.7 N 19 26 10 14 1005.3 1005.2 0.0
22/11:30am 19.8 16.1 9.4 51 5.5 N 19 28 10 15 1005.3 1005.2 0.0
22/11:00am 20.4 17.1 8.1 45 6.4 NNW 15 22 8 12 1005.3 1005.2 0.0
22/10:30am 17.4 13.3 8.0 54 4.8 NNW 19 26 10 14 1005.5 1005.4 0.0
22/10:00am 16.8 13.9 6.6 51 5.0 N 11 30 6 16 1005.8 1005.7 0.0
22/09:30am 14.7 10.9 7.5 62 3.6 NNE 17 24 9 13 1006.4 1006.3 0.0
22/09:00am 13.9 9.6 7.9 67 3.0 NNE 20 24 11 13 1006.6 1006.5 0.0
22/08:30am 13.8 9.7 7.8 67 3.0 N 19 22 10 12 1006.8 1006.7 0.0
22/08:00am 13.4 12.8 7.4 67 2.9 CALM 0 6 0 3 1007.0 1006.9 0.0
22/07:30am 11.7 9.0 7.4 75 2.1 SSW 11 13 6 7 1006.6 1006.5 0.0
22/07:00am 11.8 10.0 7.3 74 2.2 SW 6 9 3 5 1006.4 1006.3 0.0
22/06:30am 11.8 10.4 7.3 74 2.2 W 4 7 2 4 1006.2 1006.1 0.0
22/06:00am 10.4 8.3 6.5 77 1.8 WSW 7 13 4 7 1006.3 1006.2 0.0
22/05:30am 12.9 9.2 6.3 64 3.1 NNW 15 19 8 10 1005.9 1005.8 0.0
22/05:00am 12.9 8.5 7.6 70 2.6 N 20 26 11 14 1005.9 1005.8 0.0
22/04:30am 12.6 7.6 8.1 74 2.2 N 24 28 13 15 1005.9 1005.8 0.0
22/04:00am 12.1 6.5 8.9 81 1.6 N 28 37 15 20 1006.0 1005.9 0.0
22/03:30am 12.2 7.8 8.9 80 1.6 N 22 30 12 16 1006.5 1006.4 0.0
22/03:00am 12.4 8.0 8.9 79 1.8 NNE 22 30 12 16 1006.7 1006.6 0.0
22/02:30am 12.3 8.3 9.1 81 1.6 NNE 20 24 11 13 1007.2 1007.1 0.0
22/02:00am 12.0 8.4 8.3 78 1.8 N 17 20 9 11 1007.6 1007.5 0.0
22/01:30am 12.1 8.1 8.9 81 1.6 NNE 20 26 11 14 1008.0 1007.9 0.0
22/01:00am 12.0 8.1 8.5 79 1.7 NNE 19 20 10 11 1008.5 1008.4 0.0
22/12:30am 12.0 8.8 8.3 78 1.8 NNE 15 19 8 10 1009.1 1009.1 0.0
22/12:00am 12.0 9.0 7.7 75 2.1 NNE 13 15 7 8 1009.7 1009.7 0.0
 
Date/Time
EDT
Temp
°C
App
Temp
°C
Dew
Point
Rel
Hum
%
Delta-T
°C
Wind Press
QNH
hPa
Press
MSL
hPa
Rain
since 9 am
mm
Dir
 
Spd
km/h
Gust
km/h
Spd
kts
Gust
kts
21/11:30pm 12.3 8.9 7.6 73 2.3 NNE 15 19 8 10 1010.1 1010.1 0.0
21/11:00pm 12.2 8.4 7.5 73 2.3 NE 17 19 9 10 1010.2 1010.2 0.0
21/10:30pm 12.1 8.5 6.8 70 2.5 ENE 15 17 8 9 1010.3 1010.3 0.0
21/10:00pm 11.9 8.6 6.6 70 2.5 E 13 17 7 9 1010.5 1010.5 0.0
21/09:30pm 12.0 8.4 6.9 71 2.4 E 15 17 8 9 1009.8 1009.8 0.0
21/09:00pm 12.0 8.7 6.5 69 2.6 E 13 17 7 9 1009.8 1009.8 0.0
21/08:30pm 12.2 9.1 7.3 72 2.4 E 13 17 7 9 1009.5 1009.5 0.0
21/08:00pm 12.2 9.3 6.7 69 2.6 ESE 11 17 6 9 1009.2 1009.2 0.0
21/07:30pm 12.8 9.6 7.0 68 2.8 SE 13 19 7 10 1008.6 1008.5 0.0
21/07:00pm 13.1 8.8 8.0 71 2.5 ESE 20 26 11 14 1008.1 1008.0 0.0
21/06:30pm 13.8 10.4 7.6 66 3.0 ESE 15 19 8 10 1007.6 1007.5 0.0
21/06:00pm 15.4 13.8 6.4 55 4.4 ESE 4 6 2 3 1007.3 1007.2 0.0
21/05:30pm 15.8 13.2 6.0 52 4.7 S 9 17 5 9 1006.9 1006.8 0.0
21/05:00pm 16.2 12.2 6.6 53 4.7 SSW 17 22 9 12 1006.6 1006.5 0.0
21/04:30pm 15.9 12.0 6.9 55 4.4 S 17 26 9 14 1006.6 1006.5 0.0
21/04:00pm 14.7 9.9 5.8 55 4.3 S 20 30 11 16 1006.6 1006.5 0.0
21/03:30pm 14.4 10.3 6.0 57 4.0 S 17 26 9 14 1006.5 1006.4 0.0
21/03:00pm 14.9 11.1 6.0 55 4.3 S 15 28 8 15 1006.4 1006.3 0.0
21/02:30pm 14.5 11.1 6.1 57 4.0 S 13 22 7 12 1006.3 1006.2 0.0
21/02:00pm 14.8 11.4 6.1 56 4.2 SSW 13 20 7 11 1006.1 1006.0 0.0
21/01:30pm 15.4 11.7 6.4 55 4.4 SSW 15 22 8 12 1006.1 1006.0 0.0
21/01:00pm 13.4 9.3 6.0 61 3.5 SSW 17 24 9 13 1006.0 1005.9 0.0
21/12:30pm 12.9 8.4 6.9 67 2.9 SW 20 30 11 16 1005.8 1005.7 0.0
21/12:00pm 12.7 7.9 7.2 69 2.7 SW 22 35 12 19 1005.6 1005.5 0.0
21/11:30am 12.8 8.2 6.6 66 3.0 SW 20 30 11 16 1005.5 1005.4 0.0
21/11:00am 12.9 8.3 8.2 73 2.3 SW 22 32 12 17 1004.9 1004.8 0.0
21/10:30am 12.4 8.0 9.1 80 1.7 SSW 22 33 12 18 1004.6 1004.5 0.0
21/10:00am 11.9 9.0 9.8 87 1.1 SW 15 22 8 12 1004.5 1004.4 0.0
21/09:30am 12.4 8.9 10.3 87 1.1 SSW 19 28 10 15 1003.8 1003.7 0.0
21/09:00am 12.2 8.5 10.1 87 1.1 SSW 20 32 11 17 1003.6 1003.5 0.4
21/08:30am 12.8 10.1 10.3 85 1.3 SSW 15 24 8 13 1002.8 1002.7 0.4

Other Formats:

Comma delimited format used in spreadsheet applications
http://www.bom.gov.au/fwo/IDT60801/IDT60801.94988.axf

JavaScript Object Notation format (JSON) in row-major order
http://www.bom.gov.au/fwo/IDT60801/IDT60801.94988.json